Weather History for Yuma MCAS, AZ

Change the Weather History Date:

Wednesday, August 13, 2014

  Actual Average Record
Temperature  
Mean Temperature 91 °F 94 °F  
Max Temperature 100 °F 106 °F 117 °F (2012)
Min Temperature 81 °F 83 °F 68 °F (1900)
Degree Days  
Heating Degree Days 0 0  
Month to date heating degree days 0 0  
Since 1 June heating degree days 0 0  
Since 1 July heating degree days 0 0  
Cooling Degree Days 26 29  
Month to date cooling degree days 362 389  
Year to date cooling degree days 3311 2935  
Since 1 June cooling degree days 2149 2023  
Growing Degree Days 40 (Base 50)    
Moisture  
Dew Point 68 °F    
Average Humidity 49    
Maximum Humidity 65    
Minimum Humidity 33    
Precipitation  
Precipitation 0.00 in 0.02 in 0.25 in (1893)
Month to date precipitation 0.02 0.20  
Year to date precipitation 0.37 1.82  
Sea Level Pressure  
Sea Level Pressure 29.85 in    
Wind  
Wind Speed 9 mph (ESE)    
Max Wind Speed 20 mph    
Max Gust Speed 25 mph    
Visibility 10 miles    
Events      
T = Trace of Precipitation, MM = Missing Value Source: NWS Daily Summary

Daily Weather History Graph

Daily Weather History Graph

Search for Another Location

Airport:

Trip Planner

Search our weather history database for the weather conditions in past years. The results will help you decide how hot, cold, wet, or windy it might be!

Date:

Astronomy

Aug. 13, 2014 Rise Set
Actual Time 6:00 AM MST 7:25 PM MST
Civil Twilight 5:34 AM MST 7:51 PM MST
Nautical Twilight 5:03 AM MST 8:22 PM MST
Astronomical Twilight 4:30 AM MST 8:54 PM MST
Moon 9:29 PM MST (8/13) 9:19 AM MST (8/13)
Length of Visible Light 14h 16m
Length of Day
13h 24m
Waning Gibbous, 87% of the Moon is Illuminated
Aug 13
Waning Gibbous
Aug 17
Last Quarter
Aug 25
New
Sep 2
First Quarter
Sep 8
Full

Hourly Weather History & Observations

Time (MST) Temp. Heat Index Dew Point Humidity Pressure Visibility Wind Dir Wind Speed Gust Speed Precip Events Conditions
12:57 AM 89.1 °F 91.3 °F 66.0 °F 46% 29.84 in 10.0 mi SE 6.9 mph - N/A   Clear
1:57 AM 86.0 °F 89.4 °F 68.0 °F 55% 29.86 in 10.0 mi East 15.0 mph - N/A   Clear
2:57 AM 84.9 °F 88.2 °F 68.0 °F 57% 29.86 in 10.0 mi ENE 11.5 mph - N/A   Clear
3:57 AM 82.9 °F 86.5 °F 69.1 °F 63% 29.89 in 10.0 mi NNE 15.0 mph 25.3 mph N/A   Mostly Cloudy
4:57 AM 82.0 °F 85.9 °F 70.0 °F 67% 29.86 in 10.0 mi ENE 13.8 mph - N/A   Mostly Cloudy
5:57 AM 84.9 °F 88.2 °F 68.0 °F 57% 29.85 in 10.0 mi East 11.5 mph - N/A   Mostly Cloudy
6:57 AM 84.9 °F 88.8 °F 69.1 °F 59% 29.86 in 10.0 mi East 9.2 mph - N/A   Scattered Clouds
7:57 AM 84.9 °F 89.4 °F 70.0 °F 61% 29.90 in 10.0 mi NE 13.8 mph - N/A   Mostly Cloudy
8:57 AM 88.0 °F 92.9 °F 70.0 °F 55% 29.90 in 10.0 mi ENE 17.3 mph - N/A   Mostly Cloudy
9:57 AM 91.9 °F 96.9 °F 69.1 °F 47% 29.90 in 10.0 mi ENE 13.8 mph - N/A   Scattered Clouds
10:57 AM 91.9 °F 96.9 °F 69.1 °F 47% 29.90 in 7.0 mi ENE 4.6 mph - N/A   Mostly Cloudy
11:57 AM 97.0 °F 102.2 °F 68.0 °F 39% 29.88 in 10.0 mi Variable 3.5 mph - N/A   Mostly Cloudy
12:57 PM 98.1 °F 103.0 °F 68.0 °F 37% 29.86 in 10.0 mi East 11.5 mph - N/A   Mostly Cloudy
1:57 PM 97.0 °F 101.0 °F 66.9 °F 37% 29.85 in 10.0 mi East 5.8 mph - N/A   Mostly Cloudy
2:57 PM 99.0 °F 102.9 °F 66.0 °F 34% 29.83 in 10.0 mi Variable 3.5 mph - N/A   Mostly Cloudy
3:57 PM 99.0 °F 103.5 °F 66.9 °F 35% 29.82 in 10.0 mi South 10.4 mph - N/A   Mostly Cloudy
4:57 PM 97.0 °F 100.4 °F 66.0 °F 36% 29.80 in 10.0 mi South 6.9 mph - N/A   Mostly Cloudy
5:57 PM 98.1 °F 101.8 °F 66.0 °F 35% 29.78 in 10.0 mi Variable 4.6 mph - N/A   Mostly Cloudy
6:57 PM 98.1 °F 100.7 °F 64.0 °F 33% 29.78 in 10.0 mi SSW 5.8 mph - N/A   Mostly Cloudy
7:57 PM 96.1 °F 102.9 °F 70.0 °F 43% 29.79 in 10.0 mi SSW 11.5 mph - N/A   Mostly Cloudy
9:57 PM 91.0 °F 97.6 °F 71.1 °F 52% 29.83 in 10.0 mi SSE 4.6 mph - N/A   Scattered Clouds
10:57 PM 90.0 °F 94.5 °F 69.1 °F 50% 29.83 in 10.0 mi South 6.9 mph - N/A   Scattered Clouds
11:57 PM 89.1 °F 94.1 °F 70.0 °F 53% 29.83 in 10.0 mi SSE 5.8 mph - N/A   Clear